Vertical_Velocity
-0 1 -1 3 0 -1 -4 -0 1 3 -1 3 -2 2 -1 -0 3 -4 -2 -3 0 1 2 -1 -1 1 -0 -1 1 0 -3 -3 5 3 4 1 -3 -1 1 2 1 -1 9 2 -2
-0 1 3 1 2 -0 2 1 4 0 1 -6 -2 3 2 -4 -1 -1 -2 1 -0 0 -0 1 1 0 1 -1 -2 1 -2 2 5 4 -2 -2 -1 -2 0 0 -0 1 1 -3 1
-0 0 2 2 0 2 1 -2 -1 6 1 -0 -6 2 1 -3 4 -0 1 1 -1 -2 0 -1 1 -1 0 1 -2 -3 1 -0 3 3 1 -0 1 -2 -2 5 2 5 -1 2 -2
-0 -1 -0 2 3 -0 -1 3 1 3 2 0 -2 5 -3 -2 -3 -2 -1 0 -3 2 -0 -2 1 2 -1 2 -0 1 1 -1 0 4 5 4 -7 0 -4 7 3 4 2 1 -4
0 2 -1 -1 0 -1 -2 -0 -3 3 -0 -4 3 3 1 1 -1 -0 -1 2 -1 0 1 -2 -0 0 1 1 0 -0 -0 1 -0 1 2 -2 5 -7 1 3 2 -2 -1 1 1
-1 1 1 -1 0 -0 -0 -2 -0 -1 1 1 -4 -5 7 -3 1 -4 0 3 -4 -4 3 -1 -5 -0 -2 -3 1 -0 0 3 2 -4 -3 -6 2 5 10 8 0 4 11 3 5
0 2 1 3 2 0 1 1 1 -3 -2 -4 2 4 3 -1 -0 -3 -1 2 -1 -1 -0 -2 0 1 1 -0 -4 -1 0 2 -1 -3 -9 -7 8 8 -0 -2 -2 -15 -13 1 8
0 2 2 2 2 1 2 3 4 1 2 2 2 -1 -2 -0 -2 -2 -2 -3 -1 -4 2 -4 -4 -3 3 -0 -4 -1 -3 -7 2 -3 2 -3 -0 3 -0 -1 3 -2 -3 4 -3
1 1 2 1 0 1 -0 0 0 0 -0 4 -1 0 1 1 -1 1 1 -6 -0 2 3 -2 -3 -1 1 -2 2 -0 -1 -3 -8 -2 -6 -3 -5 12 6 -2 3 -1 -4 1 0
1 0 1 -0 1 -0 1 2 -1 2 0 2 -1 2 2 -1 -1 -2 -7 0 2 0 -0 -2 -1 -2 -4 -4 -4 -5 -7 -1 -4 -6 -7 -7 -7 -1 3 -4 -2 2 0 -5 4
1 2 1 0 1 1 2 1 1 1 3 -1 0 0 -2 1 2 -1 2 -0 0 3 1 -1 0 -4 -1 -1 -3 -2 -1 2 -4 -10 -13 -7 -2 1 -6 4 -1 2 4 0 -1
-1 1 1 1 1 2 1 1 0 0 -2 -1 -0 1 2 -1 -2 0 -2 0 -2 -3 -2 -1 -8 -2 0 -2 -3 -1 -3 -4 -8 -2 -2 -11 -4 -4 -2 -3 -0 -7 3 1 -7
-1 1 1 1 1 1 2 1 1 2 -2 1 0 1 -2 -1 -0 -0 -1 2 -1 -2 -3 -6 0 -3 -1 -2 -5 1 -2 -5 -3 -9 -7 -0 -8 4 -7 -2 -3 4 0 4 -0
-1 -1 1 2 0 0 -1 -0 0 1 -2 -2 -0 2 0 -2 -2 -1 -2 -4 -3 -3 -2 -4 -5 -4 -4 -3 -6 -5 -3 -5 -6 -1 -2 -5 -15 -21 -7 2 9 11 13 -1 -4
1 -0 1 2 0 -0 0 0 1 3 -7 1 0 -2 -1 -0 -3 -5 -4 -0 2 0 -1 2 -0 -0 -1 -1 0 -1 -1 -2 2 3 -1 -5 5 -22 4 -6 2 -5 -0 -2 7
-1 0 -0 1 1 0 1 1 -0 -1 -5 -0 -0 1 2 2 -1 -1 -0 2 -0 1 -0 -0 -0 -3 -3 2 1 -1 -3 -1 -4 -1 -4 5 6 12 -15 16 3 9 10 4 1
2 -1 1 0 -0 1 1 -0 -2 -0 -0 0 -0 1 -0 -0 -2 -1 -2 -2 -3 -2 -4 -2 -3 -5 -5 -3 -0 -1 -8 -7 -7 -6 -5 6 -3 13 7 12 10 8 13 18 11
-1 2 -1 0 1 1 1 1 1 -1 -1 -1 -1 0 -2 -1 -4 -5 -6 -3 -2 -4 -4 -2 -0 -1 -1 -6 -4 -2 -2 -5 -3 -1 -3 -1 2 8 13 8 -18 18 9 3 8
-1 0 0 1 1 2 1 -1 -0 0 -0 -3 -2 -2 -2 -2 -2 -2 -3 -3 -3 -3 -4 -3 -2 -2 -0 -4 -0 2 0 0 -0 0 1 0 -1 9 -25 -4 0 -8 -6 8 -2
0 0 -0 -0 1 1 0 -1 -1 0 1 -0 -1 -2 -3 -3 -2 -2 -4 -3 -3 -2 -1 -3 -2 -2 1 -2 -0 -1 -1 1 -1 -2 -1 -0 -0 -3 2 1 -22 -5 -22 -4 -4
2 0 0 1 2 1 -0 0 -0 -0 1 1 -1 -2 -2 -3 -0 -0 -2 -2 -2 -2 -0 -2 -1 -1 0 -1 -1 2 -1 -0 -1 -1 -1 0 -1 6 -1 2 2 1 1 -14 -8
2 3 2 2 0 -2 0 1 -0 -2 -1 -0 -0 0 -1 -3 -2 -3 -4 -3 -1 -1 -3 -1 -3 -1 0 -1 -2 -4 -2 -2 -3 -0 -1 0 -4 1 2 -0 0 -3 -2 -0 -11
0 2 2 2 -3 -2 -2 -1 0 -1 -1 -1 -1 -1 -1 -2 -2 -1 -1 -1 -2 0 -2 -1 -1 -2 1 4 0 -2 -0 -1 -1 1 -6 2 -6 -5 7 1 -4 -1 5 -0 -10
6 1 1 -2 1 0 -2 -1 -2 -1 0 -1 -1 -1 -1 0 -1 -2 -3 -1 -1 -0 -0 -0 -1 -2 -4 2 2 -1 1 1 2 -1 -4 -12 -13 2 -2 -6 -3 -3 -1 -8 -4
3 -1 -5 -5 -5 -0 4 -0 -1 -3 -1 -1 -2 -0 0 -3 -0 -0 -1 -1 -2 -1 -1 -3 -1 -5 0 -1 -2 -1 -1 5 -0 0 -3 -7 -3 2 -2 -3 -3 -2 -2 -0 -4
2 4 -1 -0 4 4 1 -2 1 -3 -0 -3 -3 -1 -1 1 -1 -3 -2 0 -1 -1 1 -1 -0 -3 -1 -1 -1 -6 -0 -0 -0 1 -4 1 -10 -5 3 -1 -2 -0 1 0 -1
1 5 5 -1 -1 0 -4 2 1 1 -1 -1 0 -3 -1 -0 -2 -1 1 1 2 -2 1 -0 1 -2 0 0 -1 -3 -1 -2 -0 -1 1 -0 -1 1 4 -2 -4 -0 -2 -5 -2
Height
3111 3112 3113 3114 3116 3118 3119 3121 3122 3123 3124 3126 3127 3126 3128 3130 3131 3133 3134 3135 3135 3136 3137 3136 3140 3141 3143 3144 3145 3146 3148 3149 3151 3153 3155 3156 3158 3159 3159 3158 3157 3160 3163 3166 3165
3109 3110 3111 3112 3113 3115 3116 3116 3118 3120 3121 3122 3124 3124 3125 3127 3128 3129 3131 3131 3132 3133 3134 3134 3136 3138 3139 3141 3142 3143 3144 3148 3149 3149 3149 3153 3155 3156 3157 3158 3157 3157 3159 3162 3164
3107 3108 3108 3110 3110 3112 3112 3114 3116 3117 3118 3119 3120 3121 3123 3124 3126 3126 3127 3128 3128 3130 3131 3131 3133 3135 3136 3138 3139 3140 3141 3145 3146 3145 3146 3148 3151 3152 3154 3157 3156 3156 3156 3158 3161
3106 3106 3106 3107 3108 3109 3110 3112 3113 3114 3116 3117 3118 3118 3120 3122 3125 3122 3123 3123 3124 3126 3128 3128 3130 3132 3132 3134 3136 3138 3139 3141 3142 3143 3143 3144 3146 3146 3150 3153 3154 3153 3153 3154 3156
3105 3104 3105 3106 3106 3107 3108 3110 3110 3113 3113 3115 3116 3117 3118 3119 3120 3119 3120 3122 3122 3122 3123 3125 3127 3128 3129 3130 3132 3133 3135 3138 3138 3140 3138 3139 3141 3142 3144 3147 3150 3151 3152 3152 3153
3104 3104 3104 3105 3106 3106 3107 3108 3109 3110 3111 3112 3113 3115 3116 3117 3116 3117 3118 3119 3119 3120 3120 3121 3124 3126 3126 3127 3129 3130 3131 3134 3135 3134 3133 3130 3134 3137 3141 3141 3143 3146 3148 3148 3149
3104 3105 3105 3105 3105 3106 3108 3108 3109 3109 3110 3111 3112 3113 3112 3113 3113 3114 3115 3115 3116 3118 3118 3119 3120 3122 3122 3123 3124 3126 3128 3130 3129 3129 3128 3126 3130 3131 3133 3134 3135 3139 3138 3140 3145
3104 3104 3105 3105 3105 3106 3106 3107 3107 3107 3108 3108 3109 3109 3110 3111 3112 3113 3112 3113 3114 3115 3115 3114 3117 3118 3118 3120 3121 3122 3122 3124 3126 3125 3126 3126 3121 3126 3127 3128 3130 3132 3135 3135 3135
3103 3104 3104 3105 3105 3105 3105 3106 3105 3106 3106 3106 3108 3109 3111 3110 3110 3110 3111 3111 3112 3113 3114 3113 3115 3115 3116 3117 3119 3119 3119 3121 3122 3124 3121 3124 3112 3120 3124 3124 3123 3124 3127 3129 3130
3102 3103 3104 3104 3104 3104 3104 3104 3104 3105 3105 3105 3107 3111 3111 3111 3109 3109 3110 3110 3110 3110 3111 3112 3113 3111 3114 3115 3117 3118 3118 3118 3118 3116 3114 3113 3108 3112 3115 3116 3117 3117 3120 3122 3123
3101 3102 3103 3103 3103 3103 3103 3104 3106 3106 3104 3105 3107 3107 3109 3110 3110 3110 3110 3110 3110 3111 3109 3109 3112 3110 3113 3114 3117 3118 3118 3117 3116 3115 3108 3105 3099 3102 3105 3109 3108 3111 3112 3115 3117
3100 3101 3101 3101 3102 3102 3102 3102 3103 3106 3104 3105 3107 3108 3109 3109 3110 3109 3111 3112 3111 3109 3109 3110 3109 3114 3115 3115 3117 3117 3116 3116 3113 3112 3109 3102 3092 3098 3100 3100 3102 3102 3106 3107 3109
3097 3098 3099 3099 3099 3100 3100 3101 3102 3103 3105 3107 3108 3108 3109 3111 3110 3110 3111 3110 3108 3107 3107 3108 3113 3113 3115 3114 3115 3115 3115 3114 3113 3107 3106 3103 3092 3095 3099 3099 3099 3099 3100 3103 3102
3095 3096 3097 3098 3100 3098 3099 3100 3101 3104 3106 3110 3109 3108 3109 3108 3109 3108 3108 3110 3108 3109 3108 3110 3112 3113 3114 3113 3113 3113 3113 3111 3110 3108 3110 3109 3096 3097 3097 3097 3098 3096 3095 3095 3095
3093 3094 3095 3097 3097 3098 3100 3099 3101 3105 3106 3109 3107 3107 3107 3109 3110 3109 3109 3110 3108 3107 3109 3111 3112 3111 3111 3110 3110 3111 3110 3110 3108 3110 3110 3107 3107 3104 3100 3096 3094 3094 3090 3089 3089
3091 3092 3093 3096 3096 3098 3098 3099 3102 3106 3104 3105 3105 3106 3108 3107 3107 3108 3108 3108 3106 3107 3106 3108 3109 3110 3110 3111 3109 3108 3108 3107 3106 3106 3109 3107 3110 3109 3105 3104 3097 3094 3092 3088 3086
3088 3090 3091 3093 3095 3096 3097 3099 3104 3101 3102 3103 3103 3104 3105 3106 3106 3106 3106 3107 3106 3107 3107 3109 3111 3111 3111 3111 3110 3109 3107 3109 3111 3110 3111 3107 3108 3112 3108 3104 3098 3095 3092 3087 3084
3085 3086 3088 3090 3092 3093 3096 3099 3099 3096 3097 3099 3100 3103 3104 3105 3106 3105 3106 3108 3109 3108 3110 3111 3114 3113 3113 3112 3112 3111 3111 3112 3121 3115 3110 3106 3109 3108 3108 3102 3097 3094 3088 3087 3081
3081 3083 3085 3087 3089 3091 3094 3095 3092 3093 3095 3096 3099 3102 3104 3105 3107 3107 3108 3109 3110 3110 3112 3112 3112 3113 3112 3112 3112 3111 3112 3112 3112 3113 3112 3107 3107 3108 3104 3102 3097 3089 3086 3082 3079
3075 3079 3081 3083 3085 3087 3090 3090 3090 3091 3093 3095 3097 3100 3102 3104 3106 3106 3107 3109 3109 3110 3110 3111 3111 3111 3111 3111 3111 3111 3112 3112 3111 3112 3111 3106 3106 3106 3104 3100 3094 3092 3088 3083 3080
3070 3073 3076 3078 3081 3083 3084 3086 3087 3089 3091 3094 3095 3097 3100 3102 3104 3104 3106 3108 3107 3108 3108 3108 3109 3111 3108 3109 3110 3111 3110 3110 3111 3112 3113 3110 3106 3104 3100 3096 3093 3089 3085 3079 3077
3064 3067 3070 3073 3077 3078 3080 3082 3085 3086 3088 3090 3092 3095 3097 3099 3101 3102 3103 3105 3106 3106 3106 3106 3107 3107 3107 3106 3108 3108 3109 3110 3111 3112 3112 3111 3104 3099 3097 3095 3092 3087 3085 3082 3078
3057 3061 3064 3067 3069 3072 3076 3078 3080 3083 3085 3087 3089 3092 3094 3096 3099 3099 3101 3103 3103 3104 3104 3105 3105 3106 3107 3108 3107 3106 3107 3108 3110 3109 3107 3108 3098 3095 3094 3092 3091 3088 3084 3079 3075
3052 3055 3057 3060 3063 3067 3070 3073 3076 3078 3081 3084 3086 3088 3091 3093 3095 3096 3098 3100 3100 3101 3102 3103 3101 3102 3103 3103 3103 3102 3103 3103 3105 3105 3101 3096 3092 3092 3091 3089 3088 3085 3082 3079 3075
3042 3045 3048 3051 3056 3061 3065 3068 3071 3073 3077 3079 3082 3085 3087 3090 3092 3093 3095 3096 3097 3098 3097 3098 3097 3098 3098 3096 3096 3095 3095 3097 3096 3096 3097 3091 3089 3087 3086 3085 3084 3082 3079 3076 3073
3033 3038 3042 3047 3050 3055 3058 3062 3066 3069 3072 3075 3078 3081 3084 3087 3088 3089 3091 3093 3094 3095 3095 3094 3094 3094 3093 3091 3090 3090 3090 3090 3091 3091 3089 3089 3085 3084 3083 3082 3081 3079 3076 3072 3068
3025 3031 3037 3040 3044 3048 3052 3056 3061 3065 3069 3072 3075 3078 3080 3083 3084 3086 3087 3089 3090 3091 3092 3092 3090 3091 3090 3089 3087 3085 3083 3086 3086 3086 3086 3085 3083 3082 3081 3079 3077 3075 3072 3068 3065